Regional Weather Roundup
Issued by NWS

Home | Current Version | Previous Version | Text Only | Print | Product List | Glossary Off
Versions: 1 2 3 4 5 6 7 8 9 10 11 12 13 14 15 16 17 18 19 20 21 22 23 24 25 26 27 28 29 30 31 32 33 34 35 36 37 38 39 40 41 42 43 44 45 46 47 48 49 50

000
ASUS43 KIND 231759
RWRIN

WEATHER ROUNDUP FOR INDIANA
NATIONAL WEATHER SERVICE INDIANAPOLIS IN
200 PM EDT SAT JUL 23 2016

NOTE: "FAIR" INDICATES FEW OR NO CLOUDS BELOW 12,000 FEET WITH NO
SIGNIFICANT WEATHER AND/OR OBSTRUCTIONS TO VISIBILITY.

* - STATION DOES NOT REPORT WEATHER SUCH AS PRECIPITATION OR FOG.

+ - STATION NOT QUALITY CONTROLLED BY THE NATIONAL WEATHER SERVICE.
    USE DATA WITH CAUTION...ESPECIALLY DEWPOINT AND RELATIVE
    HUMIDITY OBSERVATIONS.

INZ001>003-010>013-019-020-231900-
NORTHWEST INDIANA

CITY           SKY/WX    TMP DP  RH WIND       PRES   REMARKS
KNOX *+        PTSUNNY   86  68  54 CALM      29.99F
MONTICELLO +   PTSUNNY   87  71  59 SW5       30.00F
6HR MIN TEMP:  74; 6HR MAX TEMP:  87;


$$

LMZ046-743>745-231900-
SOUTHERN LAKE MICHIGAN

STATION/POSITION TIME  TEMP    WIND        PRES    WAVE
                       AIR SEA DIR/SP/G            HT
                 (UTC) (F)     (DEG/KT/KT) (MB)    (FT)
BURNS HARBOR     1700   82      50/  4/  5 1015.9F
MICHIGAN CITY    1700   79     360/  3/  4   N/A
5NW MICH CITY    1700   80 78  320/  2/  2   N/A     0

$$

INZ004-005-014>016-021>024-231900-
NORTH CENTRAL INDIANA

CITY           SKY/WX    TMP DP  RH WIND       PRES   REMARKS
ELKHART        MOSUNNY   90  75  62 CALM      30.00F HX 100
GOSHEN         MOSUNNY   90  66  45 VRB3      29.99F
6HR MIN TEMP:  73; 6HR MAX TEMP:  91;

SOUTH BEND     CLOUDY    90  74  59 NW3       29.99F HX  99
6HR MIN TEMP:  74; 6HR MAX TEMP:  91;


$$

INZ006>009-017-018-025>027-231900-
NORTHEAST INDIANA

CITY           SKY/WX    TMP DP  RH WIND       PRES   REMARKS
ANGOLA *+        N/A     90  84  84 NW5       30.02S HX 115
FORT WAYNE     MOSUNNY   90  66  45 CALM      30.01F
6HR MIN TEMP:  73; 6HR MAX TEMP:  90;


$$

INZ028-029-035-036-043>045-051>053-231900-
WEST CENTRAL INDIANA

CITY           SKY/WX    TMP DP  RH WIND       PRES   REMARKS
CRAWFORDSVL +  PTSUNNY   85  74  70 W3        30.03S
6HR MIN TEMP:  71; 6HR MAX TEMP:  86;

LAFAYETTE      PTSUNNY   87  75  67 VRB5      30.00F HX  96
6HR MIN TEMP:  74; 6HR MAX TEMP:  88;

TERRE HAUTE    MOSUNNY   88  72  58 VRB3      30.01F
6HR MIN TEMP:  73; 6HR MAX TEMP:  89;


$$

INZ030>032-037>040-046>048-054>057-064-065-231900-
CENTRAL INDIANA

CITY           SKY/WX    TMP DP  RH WIND       PRES   REMARKS
ANDERSON       MOSUNNY   86  73  66 NW5       30.04F
COLUMBUS       PTSUNNY   86  75  70 E5        30.02S HX  95
INDIANAPOLIS   PTSUNNY   89  73  59 SW7       30.02F HX  97
6HR MIN TEMP:  76; 6HR MAX TEMP:  89;

-EAGLE CREEK   MOSUNNY   91  73  55 NW7       30.01F HX  99
6HR MIN TEMP:  76; 6HR MAX TEMP:  91;

KOKOMO *+      MOSUNNY   88  72  58 S3        30.01S
6HR MIN TEMP:  73; 6HR MAX TEMP:  90;

SHELBYVILLE    PTSUNNY   89  72  56 NW6       30.01F HX  96
6HR MIN TEMP:  74; 6HR MAX TEMP:  89;


$$

INZ033-034-041-042-049-050-058-059-231900-
EAST CENTRAL INDIANA

CITY           SKY/WX    TMP DP  RH WIND       PRES   REMARKS
MUNCIE         MOSUNNY   89  73  59 N6        30.02F HX  97
6HR MIN TEMP:  76; 6HR MAX TEMP:  89;


$$

INZ060-061-067>069-081>083-085>088-231900-
SOUTHWEST INDIANA

CITY           SKY/WX    TMP DP  RH WIND       PRES   REMARKS
EVANSVILLE     PTSUNNY   87  75  67 CALM      30.00S HX  96
6HR MIN TEMP:  75; 6HR MAX TEMP:  89;

HUNTINGBURG *+ MOSUNNY   88  75  66 S6        30.00S HX  97
6HR MIN TEMP:  73; 6HR MAX TEMP:  90;


$$

INZ062-063-066-070>080-084-089>092-231900-
SOUTH CENTRAL AND SOUTHEAST INDIANA

CITY           SKY/WX    TMP DP  RH WIND       PRES   REMARKS
BLOOMINGTON    MOSUNNY   87  72  60 VRB3      30.02S
6HR MIN TEMP:  73; 6HR MAX TEMP:  89;

MADISON *+     PTSUNNY   88  72  58 W3        30.04S
SEYMOUR +      SUNNY     90  73  58 CALM      30.01F HX  98

$$





USA.gov is the U.S. government's official web portal to all federal, state and local government web resources and services.